Location: Nordegg
(52.4712°N, 116.0743°W)
Time: 13:33:42
(UTC+00:00)

Envisat - Pass Details

Date: 07 December 2021
Orbit: 764 x 766 km, 98.2° (Epoch: 26 January)

Event Time Altitude Azimuth Distance (km) Brightness Sun altitude
Rises 01:38:20 0° 228° (SW) 3,226 7.3 -18.1°
Reaches altitude 10° 01:43:09 10° 269° (W) 2,309 6.7 -18.9°
Maximum altitude 01:43:56 10° 278° (W) 2,288 6.5 -19.0°
Drops below altitude 10° 01:44:43 10° 287° (WNW) 2,312 6.4 -19.1°
Sets 01:49:35 0° 329° (NNW) 3,247 6.5 -19.8°
